Time,TemperatureF,DewpointF,PressureIn,WindDirection,WindDirectionDegrees,WindSpeedMPH,WindSpeedGustMPH,Humidity,HourlyPrecipIn,Conditions,Clouds,dailyrainin,SoftwareType,DateUTC
2013-05-05 00:02:00,53.0,52.0,30.01,SE,144,0.0,3.0,96,0.00,,,0.16,,2013-05-05 05:02:00,
2013-05-05 00:12:00,53.0,52.0,30.01,SE,144,0.0,3.0,96,0.00,,,0.16,,2013-05-05 05:12:00,
2013-05-05 00:21:00,53.0,52.0,30.00,South,186,1.0,3.0,96,0.00,,,0.13,,2013-05-05 05:21:00,
2013-05-05 00:31:00,53.0,52.0,30.01,South,186,0.0,2.0,96,0.00,,,0.13,,2013-05-05 05:31:00,
2013-05-05 00:42:00,53.0,52.0,30.01,South,186,0.0,2.0,96,0.00,,,0.13,,2013-05-05 05:42:00,
2013-05-05 00:52:00,53.0,52.0,30.00,SW,236,0.0,4.0,96,0.00,,,0.13,,2013-05-05 05:52:00,
2013-05-05 01:01:00,53.0,52.0,30.00,West,271,0.0,4.0,96,0.00,,,0.13,,2013-05-05 06:01:00,
2013-05-05 01:12:00,53.0,52.0,30.00,West,271,0.0,4.0,96,0.00,,,0.13,,2013-05-05 06:12:00,
2013-05-05 01:21:00,53.0,52.0,30.00,West,276,0.0,1.0,96,0.00,,,0.12,,2013-05-05 06:21:00,
2013-05-05 01:32:00,53.0,52.0,30.00,West,276,0.0,0.0,96,0.00,,,0.12,,2013-05-05 06:32:00,
2013-05-05 01:42:00,53.0,52.0,30.00,West,276,0.0,0.0,96,0.00,,,0.12,,2013-05-05 06:42:00,
2013-05-05 01:52:00,53.0,52.0,30.00,West,276,1.0,2.0,96,0.00,,,0.12,,2013-05-05 06:52:00,
2013-05-05 02:01:00,52.0,51.0,29.99,West,276,0.0,2.0,96,0.00,,,0.12,,2013-05-05 07:01:00,
2013-05-05 02:11:00,52.0,51.0,29.99,West,276,0.0,2.0,96,0.00,,,0.12,,2013-05-05 07:11:00,
2013-05-05 02:21:00,52.0,51.0,29.98,West,277,0.0,1.0,96,0.00,,,0.12,,2013-05-05 07:21:00,
2013-05-05 02:32:00,52.0,51.0,29.99,West,276,0.0,2.0,97,0.00,,,0.12,,2013-05-05 07:32:00,
2013-05-05 02:42:00,52.0,51.0,29.99,West,276,0.0,2.0,97,0.00,,,0.12,,2013-05-05 07:42:00,
2013-05-05 02:52:00,52.0,51.0,29.98,West,277,0.0,1.0,97,0.00,,,0.12,,2013-05-05 07:52:00,
2013-05-05 03:02:00,52.0,51.0,29.98,West,277,0.0,2.0,97,0.00,,,0.12,,2013-05-05 08:02:00,
2013-05-05 03:11:00,52.0,51.0,29.98,West,277,0.0,2.0,97,0.00,,,0.12,,2013-05-05 08:11:00,
2013-05-05 03:21:00,52.0,51.0,29.98,NNE,15,1.0,4.0,97,0.01,,,0.13,,2013-05-05 08:21:00,
2013-05-05 03:31:00,53.0,52.0,29.98,NNE,15,2.0,4.0,97,0.01,,,0.13,,2013-05-05 08:31:00,
2013-05-05 03:42:00,53.0,52.0,29.98,NNE,15,2.0,4.0,97,0.01,,,0.13,,2013-05-05 08:42:00,
2013-05-05 03:53:00,53.0,52.0,29.98,North,5,1.0,4.0,97,0.01,,,0.13,,2013-05-05 08:53:00,
2013-05-05 04:01:00,53.0,52.0,29.98,NNE,28,0.0,3.0,97,0.00,,,0.13,,2013-05-05 09:01:00,
2013-05-05 04:11:00,53.0,52.0,29.98,NNE,28,0.0,3.0,97,0.00,,,0.13,,2013-05-05 09:11:00,
2013-05-05 04:21:00,53.0,52.0,29.98,NE,44,0.0,3.0,97,0.00,,,0.13,,2013-05-05 09:21:00,
2013-05-05 04:32:00,53.0,52.0,29.98,North,5,2.0,5.0,97,0.00,,,0.13,,2013-05-05 09:32:00,
2013-05-05 04:42:00,53.0,52.0,29.98,North,5,2.0,5.0,97,0.00,,,0.13,,2013-05-05 09:42:00,
2013-05-05 04:52:00,53.0,52.0,29.97,North,5,3.0,6.0,97,0.00,,,0.13,,2013-05-05 09:52:00,
2013-05-05 05:02:00,53.0,52.0,29.97,NNE,30,2.0,6.0,97,0.00,,,0.13,,2013-05-05 10:02:00,
2013-05-05 05:12:00,53.0,52.0,29.97,NNE,30,2.0,6.0,97,0.00,,,0.13,,2013-05-05 10:12:00,
2013-05-05 05:22:00,53.0,52.0,29.97,NNE,14,1.0,4.0,97,0.00,,,0.13,,2013-05-05 10:22:00,
2013-05-05 05:32:00,53.0,52.0,29.97,NNE,14,1.0,3.0,97,0.00,,,0.13,,2013-05-05 10:32:00,
2013-05-05 05:42:00,53.0,52.0,29.97,NNE,14,1.0,3.0,97,0.00,,,0.13,,2013-05-05 10:42:00,
2013-05-05 05:53:00,53.0,52.0,29.97,NNE,14,0.0,2.0,97,0.00,,,0.13,,2013-05-05 10:53:00,
2013-05-05 06:01:00,53.0,52.0,29.97,North,11,0.0,3.0,97,0.00,,,0.13,,2013-05-05 11:01:00,
2013-05-05 06:12:00,53.0,52.0,29.97,North,11,0.0,3.0,97,0.00,,,0.13,,2013-05-05 11:12:00,
2013-05-05 06:22:00,53.0,52.0,29.97,NW,316,4.0,6.0,97,0.00,,,0.13,,2013-05-05 11:22:00,
2013-05-05 06:32:00,53.0,52.0,29.97,NW,306,3.0,6.0,96,0.00,,,0.13,,2013-05-05 11:32:00,
2013-05-05 06:42:00,53.0,52.0,29.97,NW,306,3.0,6.0,96,0.00,,,0.13,,2013-05-05 11:42:00,
2013-05-05 06:52:00,53.0,52.0,29.96,NW,315,3.0,6.0,96,0.00,,,0.13,,2013-05-05 11:52:00,
2013-05-05 07:02:00,53.0,52.0,29.97,NNW,335,1.0,4.0,97,0.00,,,0.13,,2013-05-05 12:02:00,
2013-05-05 07:11:00,53.0,52.0,29.97,NNW,335,1.0,4.0,97,0.00,,,0.13,,2013-05-05 12:11:00,
2013-05-05 07:21:00,53.0,52.0,29.97,NW,319,1.0,4.0,97,0.00,,,0.13,,2013-05-05 12:21:00,
2013-05-05 07:32:00,54.0,53.0,29.96,NNW,331,4.0,7.0,97,0.00,,,0.13,,2013-05-05 12:32:00,
2013-05-05 07:42:00,54.0,53.0,29.96,NNW,331,4.0,7.0,97,0.00,,,0.13,,2013-05-05 12:42:00,
2013-05-05 07:52:00,54.0,53.0,29.96,NNW,345,2.0,8.0,97,0.00,,,0.13,,2013-05-05 12:52:00,
2013-05-05 08:01:00,55.0,54.0,29.96,NNW,344,5.0,10.0,97,0.00,,,0.13,,2013-05-05 13:01:00,
2013-05-05 08:11:00,55.0,54.0,29.96,NNW,344,5.0,10.0,97,0.00,,,0.13,,2013-05-05 13:11:00,
2013-05-05 08:21:00,55.0,54.0,29.96,NNW,347,4.0,9.0,96,0.00,,,0.13,,2013-05-05 13:21:00,
2013-05-05 08:32:00,55.0,54.0,29.96,North,9,5.0,8.0,95,0.00,,,0.13,,2013-05-05 13:32:00,
2013-05-05 08:42:00,55.0,54.0,29.96,North,9,5.0,8.0,95,0.00,,,0.13,,2013-05-05 13:42:00,
2013-05-05 08:52:00,56.0,55.0,29.97,North,5,3.0,8.0,95,0.00,,,0.13,,2013-05-05 13:52:00,
2013-05-05 09:02:00,56.0,54.0,29.97,North,5,6.0,10.0,92,0.00,,,0.13,,2013-05-05 14:02:00,
2013-05-05 09:11:00,56.0,54.0,29.97,North,5,6.0,10.0,92,0.00,,,0.13,,2013-05-05 14:11:00,
2013-05-05 09:21:00,57.0,54.0,29.96,NNE,15,3.0,9.0,90,0.00,,,0.13,,2013-05-05 14:21:00,
2013-05-05 09:31:00,57.0,53.0,29.97,NNE,24,5.0,10.0,88,0.00,,,0.13,,2013-05-05 14:31:00,
2013-05-05 09:42:00,57.0,53.0,29.97,NNE,24,5.0,10.0,88,0.00,,,0.13,,2013-05-05 14:42:00,
2013-05-05 09:52:00,57.0,54.0,29.97,NNE,30,2.0,8.0,89,0.00,,,0.13,,2013-05-05 14:52:00,
2013-05-05 10:02:00,57.0,53.0,29.96,NE,49,4.0,8.0,87,0.00,,,0.13,,2013-05-05 15:02:00,
2013-05-05 10:11:00,57.0,53.0,29.96,NE,49,4.0,8.0,87,0.00,,,0.13,,2013-05-05 15:11:00,
2013-05-05 10:21:00,58.0,54.0,29.97,NE,38,3.0,7.0,85,0.00,,,0.13,,2013-05-05 15:21:00,
2013-05-05 10:33:00,60.0,55.0,29.97,NNE,31,3.0,7.0,84,0.00,,,0.13,,2013-05-05 15:33:00,
2013-05-05 10:43:00,60.0,55.0,29.97,NNE,31,3.0,7.0,84,0.00,,,0.13,,2013-05-05 15:43:00,
2013-05-05 10:53:00,60.0,55.0,29.96,North,355,2.0,6.0,83,0.00,,,0.13,,2013-05-05 15:53:00,
2013-05-05 11:03:00,62.0,55.0,29.96,NNE,33,3.0,8.0,78,0.00,,,0.13,,2013-05-05 16:03:00,
2013-05-05 11:12:00,62.0,55.0,29.96,NNE,33,3.0,8.0,78,0.00,,,0.13,,2013-05-05 16:12:00,
2013-05-05 11:23:00,63.0,53.0,29.96,ENE,58,2.0,7.0,71,0.00,,,0.13,,2013-05-05 16:23:00,
2013-05-05 11:32:00,64.0,55.0,29.95,NNW,342,4.0,7.0,72,0.00,,,0.13,,2013-05-05 16:32:00,
2013-05-05 11:42:00,64.0,55.0,29.95,NNW,342,4.0,7.0,72,0.00,,,0.13,,2013-05-05 16:42:00,
2013-05-05 11:53:00,64.0,56.0,29.94,NE,42,4.0,8.0,74,0.00,,,0.13,,2013-05-05 16:53:00,
2013-05-05 12:02:00,65.0,55.0,29.93,NW,324,5.0,9.0,71,0.00,,,0.13,,2013-05-05 17:02:00,
2013-05-05 12:12:00,65.0,55.0,29.93,NW,324,5.0,9.0,71,0.00,,,0.13,,2013-05-05 17:12:00,
2013-05-05 12:23:00,65.0,53.0,29.92,NNE,16,6.0,11.0,66,0.00,,,0.13,,2013-05-05 17:23:00,
2013-05-05 12:32:00,66.0,55.0,29.93,NE,41,4.0,9.0,68,0.00,,,0.13,,2013-05-05 17:32:00,
2013-05-05 12:42:00,66.0,55.0,29.93,NE,41,4.0,9.0,68,0.00,,,0.13,,2013-05-05 17:42:00,
2013-05-05 12:52:00,66.0,55.0,29.93,NE,55,6.0,10.0,68,0.00,,,0.13,,2013-05-05 17:52:00,
2013-05-05 13:01:00,66.0,56.0,29.92,NE,37,6.0,15.0,71,0.00,,,0.13,,2013-05-05 18:01:00,
2013-05-05 13:12:00,66.0,56.0,29.92,NE,37,6.0,15.0,71,0.00,,,0.13,,2013-05-05 18:12:00,
2013-05-05 13:21:00,66.0,55.0,29.91,East,80,6.0,14.0,68,0.00,,,0.13,,2013-05-05 18:21:00,
2013-05-05 13:32:00,66.0,55.0,29.92,ENE,74,5.0,12.0,68,0.00,,,0.13,,2013-05-05 18:32:00,
2013-05-05 13:42:00,66.0,55.0,29.92,ENE,74,5.0,12.0,68,0.00,,,0.13,,2013-05-05 18:42:00,
2013-05-05 13:52:00,67.0,56.0,29.92,ENE,69,4.0,10.0,68,0.00,,,0.13,,2013-05-05 18:52:00,
2013-05-05 14:01:00,67.0,55.0,29.91,East,87,4.0,11.0,66,0.00,,,0.13,,2013-05-05 19:01:00,
2013-05-05 14:11:00,67.0,55.0,29.91,East,87,4.0,11.0,66,0.00,,,0.13,,2013-05-05 19:11:00,
2013-05-05 14:21:00,67.0,55.0,29.91,East,92,6.0,10.0,65,0.00,,,0.13,,2013-05-05 19:21:00,
2013-05-05 14:32:00,67.0,55.0,29.91,NE,56,3.0,8.0,66,0.00,,,0.13,,2013-05-05 19:32:00,
2013-05-05 14:42:00,67.0,55.0,29.91,NE,56,3.0,8.0,66,0.00,,,0.13,,2013-05-05 19:42:00,
2013-05-05 14:52:00,66.0,55.0,29.91,ENE,74,2.0,9.0,67,0.00,,,0.13,,2013-05-05 19:52:00,
2013-05-05 15:01:00,66.0,55.0,29.91,ESE,102,3.0,10.0,67,0.00,,,0.13,,2013-05-05 20:01:00,
2013-05-05 15:11:00,66.0,55.0,29.91,ESE,102,3.0,10.0,67,0.00,,,0.13,,2013-05-05 20:11:00,
2013-05-05 15:21:00,67.0,56.0,29.91,ESE,108,2.0,10.0,67,0.00,,,0.12,,2013-05-05 20:21:00,
2013-05-05 15:31:00,67.0,56.0,29.90,East,80,4.0,10.0,67,0.00,,,0.12,,2013-05-05 20:31:00,
2013-05-05 15:41:00,67.0,56.0,29.90,East,80,4.0,10.0,67,0.00,,,0.12,,2013-05-05 20:41:00,
2013-05-05 15:52:00,67.0,56.0,29.90,ENE,69,5.0,12.0,67,0.00,,,0.12,,2013-05-05 20:52:00,
2013-05-05 16:02:00,67.0,55.0,29.90,ENE,78,4.0,11.0,65,0.00,,,0.12,,2013-05-05 21:02:00,
2013-05-05 16:11:00,67.0,55.0,29.90,ENE,78,4.0,11.0,65,0.00,,,0.12,,2013-05-05 21:11:00,
2013-05-05 16:21:00,67.0,54.0,29.90,ENE,74,5.0,11.0,64,0.00,,,0.11,,2013-05-05 21:21:00,
2013-05-05 16:33:00,67.0,54.0,29.90,NE,46,5.0,11.0,64,0.00,,,0.11,,2013-05-05 21:33:00,
2013-05-05 16:42:00,67.0,54.0,29.90,NE,46,5.0,11.0,64,0.00,,,0.11,,2013-05-05 21:42:00,
2013-05-05 16:53:00,66.0,53.0,29.90,ESE,122,6.0,16.0,62,0.00,,,0.11,,2013-05-05 21:53:00,
2013-05-05 17:02:00,65.0,52.0,29.91,ESE,106,7.0,15.0,62,0.00,,,0.11,,2013-05-05 22:02:00,
2013-05-05 17:12:00,65.0,52.0,29.91,ESE,106,7.0,15.0,62,0.00,,,0.11,,2013-05-05 22:12:00,
2013-05-05 17:22:00,65.0,53.0,29.91,ESE,117,5.0,13.0,65,0.00,,,0.11,,2013-05-05 22:22:00,
2013-05-05 17:33:00,64.0,52.0,29.91,East,88,6.0,16.0,66,0.00,,,0.11,,2013-05-05 22:33:00,
2013-05-05 17:42:00,64.0,52.0,29.91,East,88,6.0,16.0,66,0.00,,,0.11,,2013-05-05 22:42:00,
2013-05-05 17:52:00,64.0,54.0,29.91,NE,55,6.0,12.0,70,0.00,,,0.11,,2013-05-05 22:52:00,
2013-05-05 18:02:00,63.0,54.0,29.92,SE,132,7.0,15.0,72,0.00,,,0.11,,2013-05-05 23:02:00,
2013-05-05 18:11:00,63.0,54.0,29.92,SE,132,7.0,15.0,72,0.00,,,0.11,,2013-05-05 23:11:00,
2013-05-05 18:21:00,62.0,55.0,29.93,East,81,5.0,17.0,77,0.00,,,0.09,,2013-05-05 23:21:00,
2013-05-05 18:32:00,61.0,54.0,29.93,East,96,3.0,10.0,79,0.00,,,0.09,,2013-05-05 23:32:00,
2013-05-05 18:42:00,61.0,54.0,29.93,East,96,3.0,10.0,79,0.00,,,0.09,,2013-05-05 23:42:00,
2013-05-05 18:52:00,61.0,55.0,29.92,East,80,1.0,5.0,81,0.00,,,0.09,,2013-05-05 23:52:00,
2013-05-05 19:01:00,60.0,54.0,29.92,NE,40,0.0,7.0,81,0.00,,,0.09,,2013-05-06 00:01:00,
2013-05-05 19:11:00,60.0,54.0,29.92,NE,40,0.0,7.0,81,0.00,,,0.09,,2013-05-06 00:11:00,
2013-05-05 19:21:00,60.0,54.0,29.93,ENE,77,1.0,5.0,81,0.00,,,0.02,,2013-05-06 00:21:00,
2013-05-05 19:31:00,60.0,54.0,29.93,NE,48,1.0,6.0,82,0.00,,,0.02,,2013-05-06 00:31:00,
2013-05-05 19:41:00,60.0,54.0,29.93,NE,48,1.0,6.0,82,0.00,,,0.02,,2013-05-06 00:41:00,
2013-05-05 19:52:00,60.0,55.0,29.94,NE,50,2.0,7.0,83,0.00,,,0.02,,2013-05-06 00:52:00,
2013-05-05 20:01:00,60.0,54.0,29.94,ENE,64,2.0,6.0,81,0.00,,,0.02,,2013-05-06 01:01:00,
2013-05-05 20:11:00,60.0,54.0,29.94,ENE,64,2.0,6.0,81,0.00,,,0.02,,2013-05-06 01:11:00,
2013-05-05 20:21:00,59.0,54.0,29.95,ENE,64,0.0,3.0,82,0.00,,,0.02,,2013-05-06 01:21:00,
2013-05-05 20:31:00,59.0,54.0,29.95,ENE,64,0.0,2.0,83,0.00,,,0.02,,2013-05-06 01:31:00,
2013-05-05 20:41:00,59.0,54.0,29.95,ENE,64,0.0,2.0,83,0.00,,,0.02,,2013-05-06 01:41:00,
2013-05-05 20:52:00,59.0,54.0,29.95,ENE,71,0.0,3.0,84,0.00,,,0.02,,2013-05-06 01:52:00,
2013-05-05 21:01:00,59.0,55.0,29.96,ENE,69,1.0,7.0,86,0.00,,,0.02,,2013-05-06 02:01:00,
2013-05-05 21:12:00,59.0,55.0,29.96,ENE,69,1.0,7.0,86,0.00,,,0.02,,2013-05-06 02:12:00,
2013-05-05 21:21:00,58.0,54.0,29.97,ESE,113,4.0,10.0,86,0.00,,,0.02,,2013-05-06 02:21:00,
2013-05-05 21:32:00,57.0,53.0,29.97,ESE,103,3.0,11.0,87,0.01,,,0.03,,2013-05-06 02:32:00,
2013-05-05 21:42:00,57.0,53.0,29.97,ESE,103,3.0,11.0,87,0.01,,,0.03,,2013-05-06 02:42:00,
2013-05-05 21:52:00,56.0,53.0,29.98,East,82,2.0,8.0,89,0.01,,,0.03,,2013-05-06 02:52:00,
2013-05-05 23:32:00,56.0,53.0,29.98,ENE,74,5.0,11.0,89,0.00,,,0.02,,2013-05-06 04:32:00,
2013-05-05 23:42:00,56.0,53.0,29.98,ENE,74,5.0,11.0,89,0.00,,,0.02,,2013-05-06 04:42:00,
2013-05-05 23:53:00,55.0,52.0,29.97,East,97,2.0,8.0,89,0.00,,,0.02,,2013-05-06 04:53:00,